This demonstration page uses our WeatherBlox Daily Observations layout. Learn more.

Left ArrowRight Arrow

39.12711, -84.51439

Hourly Observations for September 5, 2018

Temp ( °F °C ) Dew Point ( °F °C ) Humidity (%) Winds ( mph kmh ) Pressure ( in mb ) Visibility ( mi km ) Precip ( " mm )
12:53 am 00:53 Clear 74 23.3 74 23.3 100 100 Calm 30.18 1022 10 16 0.00 0.00
1:53 am 01:53 Clear with Mist and Fog 73 22.8 73 22.8 100 100 Calm 30.16 1022 6 10 0.00 0.00
2:03 am 02:03 Clear with Mist and Fog 73 22.8 73 22.8 100 100 Calm 30.15 1021 2 2 0.00 0.00
2:17 am 02:17 Clear with Mist and Fog 73 22.8 73 22.8 100 100 Calm 30.15 1021 4 6 0.00 0.00
2:53 am 02:53 Clear 73 22.8 73 22.8 100 100 Calm 30.16 1021 7 11 0.00 0.00
3:53 am 03:53 Clear with Mist and Fog 72 22.2 72 22.2 100 100 Calm 30.16 1021 3 4 0.00 0.00
4:02 am 04:02 Clear with Mist and Fog 73 22.8 73 22.8 100 100 Calm 30.15 1021 5 8 0.00 0.00
4:18 am 04:18 Clear with Mist and Fog 72 22.2 72 22.2 100 100 Calm 30.15 1021 2 3 0.00 0.00
4:27 am 04:27 Clear with Mist and Fog 72 22.2 72 22.2 100 100 Calm 30.15 1021 1 1 0.00 0.00
4:31 am 04:31 Clear with Mist and Fog 72 22.2 72 22.2 100 100 Calm 30.15 1021 2 3 0.00 0.00
4:38 am 04:38 Clear with Mist and Fog 72 22.2 72 22.2 100 100 Calm 30.15 1021 5 8 0.00 0.00
4:53 am 04:53 Clear with Mist and Fog 72 22.2 72 22.2 100 100 Calm 30.16 1021 5 8 0.00 0.00
5:31 am 05:31 Mostly Clear with Mist and Fog 72 22.2 72 22.2 100 100 Calm 30.15 1021 6 10 0.00 0.00
5:38 am 05:38 Partly Cloudy with Mist and Fog 72 22.2 72 22.2 100 100 Calm 30.15 1021 2 2 0.00 0.00
5:47 am 05:47 Mostly Cloudy with Mist and Fog 72 22 72 22 100 100 Calm 30.15 1021 3 4 0.00 0.00
5:48 am 05:48 Mostly Cloudy with Mist and Fog 72 22 72 22 100 100 Calm 30.15 1021 3 5 0.00 0.00
5:53 am 05:53 Partly Cloudy with Mist and Fog 72 22.2 72 22.2 100 100 Calm 30.16 1021 6 10 0.00 0.00
6:16 am 06:16 Mostly Cloudy with Mist and Fog 72 22.2 72 22.2 100 100 Calm 30.15 1021 3 5 0.00 0.00
6:26 am 06:26 Mostly Cloudy with Mist and Fog 71 21.7 71 21.7 100 100 Calm 30.15 1021 2 3 0.00 0.00
6:30 am 06:30 Partly Cloudy with Mist and Fog 71 21.7 71 21.7 100 100 Calm 30.15 1021 3 5 0.00 0.00
6:36 am 06:36 Partly Cloudy with Mist and Fog 71 21.7 71 21.7 100 100 Calm 30.15 1021 2 3 0.00 0.00
6:45 am 06:45 Mostly Cloudy with Mist and Fog 71 21.7 71 21.7 100 100 Calm 30.15 1021 1 2 0.00 0.00
6:53 am 06:53 Mostly Cloudy with Fog 70 21.1 70 21.1 100 100 Calm 30.18 1022 1 2 0.00 0.00
7:08 am 07:08 Mostly Cloudy with Fog 71 21.7 71 21.7 100 100 Calm 30.15 1021 0 0 0.00 0.00
7:53 am 07:53 Mostly Cloudy with Fog 72 22.2 72 22.2 100 100 Calm 30.18 1022 5 8 0.00 0.00
8:49 am 08:49 Mostly Cloudy with Fog 73 23 73 23 100 100 Calm 30.18 1022 6 10 0.00 0.03
8:53 am 08:53 Partly Cloudy with Mist and Fog 74 23.3 74 23.3 100 100 Calm 30.19 1022 6 10 0.00 0.03
9:53 am 09:53 Sunny 80 26.7 76 24.4 87 87 Calm 30.19 1022 10 16 0.00 0.03
10:53 am 10:53 Sunny 84 28.9 76 24.4 77 77 Calm 30.19 1022 10 16 0.00 0.00
11:53 am 11:53 Sunny 87 30.6 76 24.4 70 70 VRB 3 6 30.18 1022 10 16 0.00 0.00
12:53 pm 12:53 Mostly Cloudy 88 31.1 74 23.3 63 63 Calm 30.17 1022 10 16 0.00 0.00
1:53 pm 13:53 Sunny 91 32.8 76 24.4 61 61 Calm 30.15 1021 10 16 0.00 0.00
2:53 pm 14:53 Partly Cloudy 89 31.7 75 23.9 63 63 SW 6 9 30.14 1021 10 16 0.00 0.00
3:08 pm 15:08 Partly Cloudy with Nearby Thunderstorms 87 30.6 75 23.9 67 67 SSW 7 11 30.12 1020 10 16 0.00 0.00
3:45 pm 15:45 Mostly Sunny 85 29.4 78 25.6 80 80 S 3 6 30.09 1019 10 16 0.00 0.00
3:53 pm 15:53 Sunny 85 29.4 77 25 77 77 SSE 5 7 30.12 1020 10 16 0.00 0.00
4:28 pm 16:28 Partly Cloudy with Nearby Thunderstorms 85 29.4 77 25 77 77 S 6 9 30.09 1019 10 16 0.00 0.00
4:37 pm 16:37 Partly Cloudy with Thunderstorms 85 29.4 76 24.4 75 75 S 5 7 30.09 1019 10 16 0.00 0.00
4:53 pm 16:53 Partly Cloudy with Thunderstorms 86 30 76 24.4 72 72 SSE 5 7 30.10 1019 10 16 0.00 0.00
5:53 pm 17:53 Mostly Cloudy with Thunderstorms 80 26.7 71 21.7 74 74 W 7 11 30.15 1021 10 16 0.00 0.00
6:43 pm 18:43 Mostly Cloudy with Thunderstorms 74 23.3 73 22.8 97 97 S 3 6 30.15 1021 6 10 0.07 1.78
6:53 pm 18:53 Mostly Cloudy with Thunderstorms 74 23.3 73 22.8 97 97 E 5 7 30.16 1021 7 11 0.08 2.03
7:11 pm 19:11 Cloudy with Thunderstorms 74 23.3 71 21.7 91 91 NNW 3 6 30.15 1021 10 16 0.00 0.03
7:21 pm 19:21 Cloudy with Thunderstorms 74 23.3 72 22.2 94 94 VRB 3 6 30.15 1021 10 16 0.00 0.03
7:23 pm 19:23 Cloudy with Nearby Thunderstorms 74 23.3 71 21.7 91 91 VRB 3 6 30.15 1021 10 16 0.00 0.03
7:53 pm 19:53 Partly Cloudy 73 22.8 71 21.7 94 94 VRB 3 6 30.17 1022 10 16 0.00 0.03
8:53 pm 20:53 Clear 72 22.2 71 21.7 97 97 E 3 6 30.18 1022 10 16 0.00 0.00
9:53 pm 21:53 Clear 71 21.7 71 21.7 100 100 Calm 30.19 1022 7 11 0.00 0.00
10:53 pm 22:53 Clear 71 21.7 71 21.7 100 100 SSE 5 7 30.19 1022 9 14 0.00 0.00
11:53 pm 23:53 Clear 71 21.7 71 21.7 100 100 S 5 7 30.19 1022 8 13 0.00 0.00

Powered by AerisWeather